,,,PA_Meas_PMT16A,,PR_Meas_QMR101_102,,RH_Meas_QMH101,,SR_Meas_QMS101,,TA_Meas_QMH101,,GenWind,,GenWind,
date,time,status,PA,status,PR,status,RH,status,SR,status,TA,status,DirAvg,status,SpdAvg,
2010-01-11, 00:00:04,VALID,1003.74,VALID,0,VALID,92.3095,VALID,0,VALID,24.969,VALID,297,VALID,1.06797,
2010-01-11, 00:01:04,VALID,1003.76,VALID,0,VALID,92.4086,VALID,0,VALID,24.9125,VALID,269,VALID,1.20078,
2010-01-11, 00:02:04,VALID,1003.8,VALID,0,VALID,92.3857,VALID,0,VALID,24.7724,VALID,304,VALID,1.74922,
2010-01-11, 00:03:04,VALID,1003.82,VALID,0.5,VALID,92.3247,VALID,0,VALID,24.6964,VALID,297,VALID,2.14727,
2010-01-11, 00:04:04,VALID,1003.87,VALID,0,VALID,92.34,VALID,0,VALID,24.5796,VALID,289,VALID,2.525,
2010-01-11, 00:05:04,VALID,1003.84,VALID,0,VALID,92.2561,VALID,0,VALID,24.4628,VALID,289,VALID,2.72227,
2010-01-11, 00:06:04,VALID,1003.87,VALID,0,VALID,92.2332,VALID,0,VALID,24.3654,VALID,288,VALID,2.34609,
2010-01-11, 00:07:04,VALID,1003.86,VALID,0.5,VALID,92.3705,VALID,0,VALID,24.3265,VALID,277,VALID,1.30664,
2010-01-11, 00:08:04,VALID,1003.79,VALID,0,VALID,92.5993,VALID,0,VALID,24.307,VALID,263,VALID,1.35117,
2010-01-11, 00:09:04,VALID,1003.89,VALID,0.5,VALID,92.7977,VALID,0,VALID,24.2875,VALID,276,VALID,1.18203,
2010-01-11, 00:10:04,VALID,1003.83,VALID,0.5,VALID,92.9655,VALID,0,VALID,24.2468,VALID,222,VALID,1.13633,
2010-01-11, 00:11:04,VALID,1003.76,VALID,0.5,VALID,93.141,VALID,0,VALID,24.2681,VALID,169,VALID,0.564453,
2010-01-11, 00:12:04,VALID,1003.75,VALID,0,VALID,93.2859,VALID,0,VALID,24.2486,VALID,222,VALID,0.788672,
2010-01-11, 00:13:04,VALID,1003.68,VALID,0,VALID,93.4156,VALID,0,VALID,24.2486,VALID,214,VALID,1.5043,
2010-01-11, 00:14:04,VALID,1003.67,VALID,0,VALID,93.5148,VALID,0.100563,VALID,24.2662,VALID,229,VALID,0.467969,
2010-01-11, 00:15:04,VALID,1003.67,VALID,0,VALID,93.614,VALID,0,VALID,24.2875,VALID,194,VALID,0.15625,
2010-01-11, 00:16:04,VALID,1003.65,VALID,0.5,VALID,93.6979,VALID,0,VALID,24.2857,VALID,245,VALID,0.216016,
2010-01-11, 00:17:04,VALID,1003.64,VALID,0,VALID,93.7513,VALID,0,VALID,24.3052,VALID,358,VALID,1.1707,
2010-01-11, 00:18:04,VALID,1003.62,VALID,0,VALID,93.8123,VALID,0,VALID,24.3654,VALID,291,VALID,1.60508,
2010-01-11, 00:19:04,VALID,1003.59,VALID,0,VALID,93.8581,VALID,0.100563,VALID,24.3636,VALID,288,VALID,1.81875,
2010-01-11, 00:20:04,VALID,1003.62,VALID,0,VALID,93.9039,VALID,0,VALID,24.3636,VALID,293,VALID,0.991406,
2010-01-11, 00:21:04,VALID,1003.59,VALID,0,VALID,93.9191,VALID,0,VALID,24.3636,VALID,269,VALID,0.243359,
2010-01-11, 00:22:04,VALID,1003.61,VALID,0,VALID,93.9802,VALID,0,VALID,24.3636,VALID,281,VALID,0.657812,
2010-01-11, 00:23:04,VALID,1003.6,VALID,0,VALID,94.0031,VALID,0.100563,VALID,24.3441,VALID,285,VALID,0.867188,
2010-01-11, 00:24:04,VALID,1003.58,VALID,0.5,VALID,94.0107,VALID,0,VALID,24.3246,VALID,285,VALID,0.380469,
2010-01-11, 00:25:04,VALID,1003.53,VALID,0,VALID,94.0412,VALID,0.100563,VALID,24.3459,VALID,327,VALID,0.921094,
2010-01-11, 00:26:04,VALID,1003.5,VALID,0.5,VALID,94.0565,VALID,0,VALID,24.3052,VALID,287,VALID,0.347266,
2010-01-11, 00:27:04,VALID,1003.52,VALID,0,VALID,94.0717,VALID,0.100563,VALID,24.3052,VALID,283,VALID,1.12969,
2010-01-11, 00:28:04,VALID,1003.49,VALID,0.5,VALID,94.087,VALID,0.100563,VALID,24.2839,VALID,299,VALID,0.440234,
2010-01-11, 00:29:04,VALID,1003.49,VALID,0,VALID,94.1175,VALID,0,VALID,24.307,VALID,261,VALID,0.557422,
2010-01-11, 00:30:04,VALID,1003.47,VALID,0,VALID,94.1251,VALID,0,VALID,24.3088,VALID,287,VALID,0.635547,
2010-01-11, 00:31:04,VALID,1003.5,VALID,0.5,VALID,94.148,VALID,0,VALID,24.2662,VALID,263,VALID,0.601563,
2010-01-11, 00:32:04,VALID,1003.47,VALID,0,VALID,94.1938,VALID,0,VALID,24.2894,VALID,266,VALID,1.03984,
2010-01-11, 00:33:04,VALID,1003.42,VALID,0,VALID,94.1785,VALID,0,VALID,24.2681,VALID,296,VALID,0.678516,
2010-01-11, 00:34:04,VALID,1003.43,VALID,0,VALID,94.1938,VALID,0,VALID,24.2681,VALID,296,VALID,0.391797,
2010-01-11, 00:35:04,VALID,1003.37,VALID,0.5,VALID,94.2243,VALID,0,VALID,24.2875,VALID,254,VALID,0.689453,
2010-01-11, 00:36:04,VALID,1003.34,VALID,0,VALID,94.2243,VALID,0,VALID,24.2681,VALID,283,VALID,0.867578,
2010-01-11, 00:37:04,VALID,1003.35,VALID,0,VALID,94.2548,VALID,0,VALID,24.307,VALID,302,VALID,0.823047,
2010-01-11, 00:38:04,VALID,1003.35,VALID,0,VALID,94.2701,VALID,0,VALID,24.2662,VALID,277,VALID,0.418359,
2010-01-11, 00:39:04,VALID,1003.31,VALID,0,VALID,94.2701,VALID,0,VALID,24.2875,VALID,300,VALID,0.0105469,
2010-01-11, 00:40:04,VALID,1003.31,VALID,0,VALID,94.293,VALID,0,VALID,24.307,VALID,302,VALID,0.178125,
2010-01-11, 00:41:04,VALID,1003.3,VALID,0,VALID,94.3158,VALID,0,VALID,24.3283,VALID,293,VALID,0.926953,
2010-01-11, 00:42:04,VALID,1003.24,VALID,0.5,VALID,94.3235,VALID,0,VALID,24.3283,VALID,296,VALID,0.345703,
2010-01-11, 00:43:04,VALID,1003.22,VALID,0,VALID,94.3387,VALID,0,VALID,24.307,VALID,328,VALID,0.369531,
2010-01-11, 00:44:04,VALID,1003.21,VALID,0,VALID,94.354,VALID,0.100563,VALID,24.3246,VALID,353,VALID,0.442969,
2010-01-11, 00:45:04,VALID,1003.16,VALID,0,VALID,94.3616,VALID,0.100563,VALID,24.3441,VALID,353,VALID,0.369531,
2010-01-11, 00:46:04,VALID,1003.1,VALID,0,VALID,94.3692,VALID,0.100563,VALID,24.3441,VALID,254,VALID,0,
2010-01-11, 00:47:04,VALID,1003.11,VALID,0,VALID,94.3998,VALID,0.100563,VALID,24.3441,VALID,51,VALID,0.0121094,
2010-01-11, 00:48:04,VALID,1003.09,VALID,0,VALID,94.4074,VALID,0,VALID,24.3636,VALID,51,VALID,0.0195313,
2010-01-11, 00:49:04,VALID,1003.05,VALID,0,VALID,94.4074,VALID,0.100563,VALID,24.3636,VALID,21,VALID,0.167187,
2010-01-11, 00:50:04,VALID,1003.01,VALID,0,VALID,94.4455,VALID,0,VALID,24.3636,VALID,360,VALID,0.692578,
2010-01-11, 00:51:04,VALID,1002.96,VALID,0,VALID,94.4379,VALID,0.100563,VALID,24.3422,VALID,358,VALID,0.688281,
2010-01-11, 00:52:04,VALID,1002.93,VALID,0,VALID,94.4608,VALID,0,VALID,24.3636,VALID,5,VALID,1.40664,
2010-01-11, 00:53:04,VALID,1002.92,VALID,0,VALID,94.4379,VALID,0.100563,VALID,24.3654,VALID,350,VALID,0.768359,
2010-01-11, 00:54:04,VALID,1002.94,VALID,0,VALID,94.4532,VALID,0.100563,VALID,24.3636,VALID,5,VALID,0.788281,
2010-01-11, 00:55:04,VALID,1002.93,VALID,0,VALID,94.4837,VALID,0.100563,VALID,24.3636,VALID,348,VALID,0.753516,
2010-01-11, 00:56:04,VALID,1002.9,VALID,0,VALID,94.4913,VALID,0.100563,VALID,24.383,VALID,337,VALID,0.00234375,
2010-01-11, 00:57:04,VALID,1002.88,VALID,0,VALID,94.4913,VALID,0,VALID,24.383,VALID,346,VALID,0.703516,
2010-01-11, 00:58:04,VALID,1002.84,VALID,0,VALID,94.4913,VALID,0.100563,VALID,24.4043,VALID,13,VALID,0.0179687,
2010-01-11, 00:59:04,VALID,1002.83,VALID,0,VALID,94.4837,VALID,0,VALID,24.3812,VALID,349,VALID,0.297266,
2010-01-11, 01:00:04,VALID,1002.78,VALID,0,VALID,94.5142,VALID,0.100563,VALID,24.422,VALID,352,VALID,0.8125,
2010-01-11, 01:01:04,VALID,1002.73,VALID,0,VALID,94.5295,VALID,0,VALID,24.422,VALID,342,VALID,0,
2010-01-11, 01:02:04,VALID,1002.71,VALID,0,VALID,94.5142,VALID,0.100563,VALID,24.422,VALID,328,VALID,0.366406,
2010-01-11, 01:03:04,VALID,1002.71,VALID,0,VALID,94.5447,VALID,0.100563,VALID,24.4006,VALID,281,VALID,0.605078,
2010-01-11, 01:04:04,VALID,1002.66,VALID,0,VALID,94.5447,VALID,0.100563,VALID,24.4414,VALID,309,VALID,0.208203,
2010-01-11, 01:05:04,VALID,1002.62,VALID,0,VALID,94.5523,VALID,0,VALID,24.4414,VALID,286,VALID,1.10312,
2010-01-11, 01:06:04,VALID,1002.61,VALID,0,VALID,94.5523,VALID,0.100563,VALID,24.4609,VALID,302,VALID,0.65,
2010-01-11, 01:07:04,VALID,1002.58,VALID,0,VALID,94.5752,VALID,0.100563,VALID,24.4396,VALID,280,VALID,0.065625,
2010-01-11, 01:08:04,VALID,1002.58,VALID,0,VALID,94.56,VALID,0.100563,VALID,24.4609,VALID,306,VALID,0.19375,
2010-01-11, 01:09:04,VALID,1002.57,VALID,0,VALID,94.5981,VALID,0.100563,VALID,24.4822,VALID,306,VALID,0,
2010-01-11, 01:10:04,VALID,1002.58,VALID,0,VALID,94.5905,VALID,0.100563,VALID,24.4609,VALID,319,VALID,0.1875,
2010-01-11, 01:11:04,VALID,1002.56,VALID,0,VALID,94.5752,VALID,0.100563,VALID,24.4822,VALID,294,VALID,0.404687,
2010-01-11, 01:12:04,VALID,1002.56,VALID,0,VALID,94.5981,VALID,0,VALID,24.4804,VALID,360,VALID,0.782422,
2010-01-11, 01:13:04,VALID,1002.53,VALID,0,VALID,94.5981,VALID,0.100563,VALID,24.4609,VALID,360,VALID,0.307031,
2010-01-11, 01:14:04,VALID,1002.53,VALID,0,VALID,94.5981,VALID,0,VALID,24.4609,VALID,351,VALID,0.328906,
2010-01-11, 01:15:04,VALID,1002.5,VALID,0,VALID,94.5981,VALID,0,VALID,24.4396,VALID,346,VALID,0.707422,
2010-01-11, 01:16:04,VALID,1002.47,VALID,0,VALID,94.5829,VALID,0,VALID,24.4609,VALID,354,VALID,0.765234,
2010-01-11, 01:17:04,VALID,1002.42,VALID,0.5,VALID,94.6057,VALID,0.100563,VALID,24.4609,VALID,354,VALID,0.178125,
2010-01-11, 01:18:04,VALID,1002.4,VALID,0,VALID,94.6134,VALID,0,VALID,24.459,VALID,354,VALID,0.347266,
2010-01-11, 01:19:04,VALID,1002.4,VALID,0,VALID,94.6134,VALID,0,VALID,24.5017,VALID,329,VALID,0.639063,
2010-01-11, 01:20:04,VALID,1002.36,VALID,0,VALID,94.6286,VALID,0,VALID,24.4998,VALID,327,VALID,0.220703,
2010-01-11, 01:21:04,VALID,1002.36,VALID,0,VALID,94.621,VALID,0,VALID,24.4998,VALID,341,VALID,0.303125,
2010-01-11, 01:22:04,VALID,1002.33,VALID,0,VALID,94.621,VALID,0.100563,VALID,24.5406,VALID,356,VALID,0.332812,
2010-01-11, 01:23:04,VALID,1002.3,VALID,0,VALID,94.6286,VALID,0.100563,VALID,24.5193,VALID,3,VALID,0.950391,
2010-01-11, 01:24:04,VALID,1002.3,VALID,0,VALID,94.6363,VALID,0,VALID,24.4998,VALID,360,VALID,0.575391,
2010-01-11, 01:25:04,VALID,1002.28,VALID,0,VALID,94.6363,VALID,0,VALID,24.4804,VALID,345,VALID,0.507031,
2010-01-11, 01:26:04,VALID,1002.28,VALID,0,VALID,94.6286,VALID,0,VALID,24.4998,VALID,337,VALID,0.0609375,
2010-01-11, 01:27:04,VALID,1002.29,VALID,0,VALID,94.6286,VALID,0,VALID,24.4998,VALID,347,VALID,0.843359,
2010-01-11, 01:28:04,VALID,1002.26,VALID,0,VALID,94.6363,VALID,0.100563,VALID,24.4804,VALID,2,VALID,0.650391,
2010-01-11, 01:29:04,VALID,1002.21,VALID,0,VALID,94.6439,VALID,0,VALID,24.5017,VALID,343,VALID,0.702344,
2010-01-11, 01:30:04,VALID,1002.17,VALID,0,VALID,94.6286,VALID,0,VALID,24.4804,VALID,347,VALID,0.741406,
2010-01-11, 01:31:04,VALID,1002.14,VALID,0,VALID,94.6363,VALID,0,VALID,24.5017,VALID,351,VALID,0.989062,
2010-01-11, 01:32:04,VALID,1002.13,VALID,0,VALID,94.6286,VALID,0,VALID,24.4998,VALID,356,VALID,0.633203,
2010-01-11, 01:33:04,VALID,1002.14,VALID,0,VALID,94.6363,VALID,0,VALID,24.4998,VALID,357,VALID,0.0917969,
2010-01-11, 01:34:04,VALID,1002.05,VALID,0,VALID,94.6286,VALID,0,VALID,24.4998,VALID,353,VALID,0.703516,
2010-01-11, 01:35:04,VALID,1002.04,VALID,0,VALID,94.6515,VALID,0,VALID,24.5017,VALID,335,VALID,0.70625,
2010-01-11, 01:36:04,VALID,1001.99,VALID,0,VALID,94.6363,VALID,0,VALID,24.4804,VALID,346,VALID,0.619922,
2010-01-11, 01:37:04,VALID,1001.98,VALID,0,VALID,94.6591,VALID,0.100563,VALID,24.5017,VALID,352,VALID,1.2332,
2010-01-11, 01:38:04,VALID,1001.94,VALID,0,VALID,94.6363,VALID,0,VALID,24.4609,VALID,3,VALID,0.187109,
2010-01-11, 01:39:04,VALID,1001.92,VALID,0,VALID,94.6286,VALID,0,VALID,24.4822,VALID,349,VALID,0.919141,
2010-01-11, 01:40:04,VALID,1001.92,VALID,0,VALID,94.6363,VALID,0,VALID,24.4822,VALID,354,VALID,0.646094,
2010-01-11, 01:41:04,VALID,1001.89,VALID,0,VALID,94.6515,VALID,0,VALID,24.4609,VALID,11,VALID,0.553125,
2010-01-11, 01:42:04,VALID,1001.87,VALID,0,VALID,94.6439,VALID,0,VALID,24.4414,VALID,350,VALID,0.666797,
2010-01-11, 01:43:04,VALID,1001.86,VALID,0,VALID,94.6591,VALID,0,VALID,24.4628,VALID,344,VALID,0.750391,
2010-01-11, 01:44:04,VALID,1001.84,VALID,0,VALID,94.6439,VALID,0,VALID,24.422,VALID,350,VALID,0.552734,
2010-01-11, 01:45:04,VALID,1001.84,VALID,0,VALID,94.621,VALID,0,VALID,24.4414,VALID,348,VALID,0.508984,
2010-01-11, 01:46:04,VALID,1001.79,VALID,0,VALID,94.6286,VALID,0,VALID,24.4414,VALID,352,VALID,0.562891,
2010-01-11, 01:47:04,VALID,1001.75,VALID,0,VALID,94.621,VALID,0,VALID,24.4433,VALID,351,VALID,0.462891,
2010-01-11, 01:48:04,VALID,1001.73,VALID,0,VALID,94.621,VALID,0,VALID,24.4433,VALID,350,VALID,0.467969,
2010-01-11, 01:49:04,VALID,1001.73,VALID,0,VALID,94.6439,VALID,0,VALID,24.4433,VALID,352,VALID,0.651953,
2010-01-11, 01:50:04,VALID,1001.66,VALID,0,VALID,94.6286,VALID,0,VALID,24.4433,VALID,355,VALID,0.424609,
2010-01-11, 01:51:04,VALID,1001.63,VALID,0,VALID,94.621,VALID,0,VALID,24.4238,VALID,344,VALID,0.451172,
2010-01-11, 01:52:04,VALID,1001.62,VALID,0,VALID,94.6286,VALID,0,VALID,24.4025,VALID,345,VALID,0.171094,
2010-01-11, 01:53:04,VALID,1001.61,VALID,0,VALID,94.621,VALID,0,VALID,24.383,VALID,338,VALID,0.690625,
2010-01-11, 01:54:04,VALID,1001.57,VALID,0,VALID,94.621,VALID,0,VALID,24.383,VALID,338,VALID,0.261719,
2010-01-11, 01:55:04,VALID,1001.59,VALID,0,VALID,94.6057,VALID,0,VALID,24.4043,VALID,335,VALID,0,
2010-01-11, 01:56:04,VALID,1001.58,VALID,0,VALID,94.6057,VALID,0.100563,VALID,24.3636,VALID,358,VALID,0,
2010-01-11, 01:57:04,VALID,1001.57,VALID,0,VALID,94.6057,VALID,0,VALID,24.3849,VALID,333,VALID,0.0246094,
2010-01-11, 01:58:04,VALID,1001.51,VALID,0,VALID,94.5829,VALID,0.100563,VALID,24.3849,VALID,294,VALID,0.376172,
2010-01-11, 01:59:04,VALID,1001.49,VALID,0,VALID,94.5905,VALID,0,VALID,24.3849,VALID,350,VALID,0.716797,
2010-01-11, 02:00:04,VALID,1001.46,VALID,0,VALID,94.5829,VALID,0,VALID,24.3441,VALID,358,VALID,1.17031,
2010-01-11, 02:01:04,VALID,1001.49,VALID,0,VALID,94.5752,VALID,0.100563,VALID,24.3441,VALID,357,VALID,0.408594,
2010-01-11, 02:02:04,VALID,1001.46,VALID,0,VALID,94.56,VALID,0,VALID,24.3441,VALID,300,VALID,1.02695,
2010-01-11, 02:03:04,VALID,1001.43,VALID,0,VALID,94.5523,VALID,0,VALID,24.3246,VALID,295,VALID,0.605859,
2010-01-11, 02:04:04,VALID,1001.41,VALID,0,VALID,94.5752,VALID,0,VALID,24.3246,VALID,278,VALID,0.0855469,
2010-01-11, 02:05:04,VALID,1001.39,VALID,0,VALID,94.5371,VALID,0,VALID,24.3441,VALID,280,VALID,0.498047,
2010-01-11, 02:06:04,VALID,1001.37,VALID,0,VALID,94.5142,VALID,0,VALID,24.3654,VALID,295,VALID,0,
2010-01-11, 02:07:04,VALID,1001.35,VALID,0,VALID,94.4989,VALID,0,VALID,24.3654,VALID,304,VALID,0.195703,
2010-01-11, 02:08:04,VALID,1001.34,VALID,0,VALID,94.5142,VALID,0.100563,VALID,24.3441,VALID,291,VALID,0.492188,
2010-01-11, 02:09:04,VALID,1001.32,VALID,0,VALID,94.4684,VALID,0,VALID,24.3673,VALID,286,VALID,0.752344,
2010-01-11, 02:10:04,VALID,1001.31,VALID,0,VALID,94.4837,VALID,0,VALID,24.3265,VALID,304,VALID,0.284375,
2010-01-11, 02:11:04,VALID,1001.29,VALID,0,VALID,94.4684,VALID,0,VALID,24.3052,VALID,300,VALID,0.516797,
2010-01-11, 02:12:04,VALID,1001.25,VALID,0,VALID,94.4684,VALID,0.100563,VALID,24.2857,VALID,300,VALID,0,
2010-01-11, 02:13:04,VALID,1001.22,VALID,0,VALID,94.4532,VALID,0,VALID,24.3265,VALID,298,VALID,0.0121094,
2010-01-11, 02:14:04,VALID,1001.2,VALID,0,VALID,94.4455,VALID,0,VALID,24.3052,VALID,291,VALID,0.615234,
2010-01-11, 02:15:04,VALID,1001.18,VALID,0,VALID,94.4227,VALID,0,VALID,24.2857,VALID,276,VALID,0,
2010-01-11, 02:16:04,VALID,1001.17,VALID,0,VALID,94.4379,VALID,0,VALID,24.2857,VALID,276,VALID,0.216797,
2010-01-11, 02:17:04,VALID,1001.16,VALID,0,VALID,94.4227,VALID,0,VALID,24.2857,VALID,283,VALID,0.559375,
2010-01-11, 02:18:04,VALID,1001.13,VALID,0,VALID,94.4074,VALID,0,VALID,24.307,VALID,283,VALID,0.276172,
2010-01-11, 02:19:04,VALID,1001.13,VALID,0,VALID,94.415,VALID,0,VALID,24.2857,VALID,285,VALID,0.278906,
2010-01-11, 02:20:04,VALID,1001.12,VALID,0,VALID,94.4074,VALID,0,VALID,24.3052,VALID,285,VALID,0,
2010-01-11, 02:21:04,VALID,1001.1,VALID,0,VALID,94.415,VALID,0,VALID,24.3052,VALID,285,VALID,0.00351562,
2010-01-11, 02:22:04,VALID,1001.1,VALID,0,VALID,94.415,VALID,0,VALID,24.3265,VALID,285,VALID,0.00351562,
2010-01-11, 02:23:04,VALID,1001.08,VALID,0,VALID,94.415,VALID,0,VALID,24.2857,VALID,287,VALID,0.01875,
2010-01-11, 02:24:04,VALID,1001.08,VALID,0,VALID,94.3921,VALID,0,VALID,24.307,VALID,304,VALID,0.00195313,
2010-01-11, 02:25:04,VALID,1001.02,VALID,0,VALID,94.4074,VALID,0,VALID,24.3265,VALID,304,VALID,0.144922,
2010-01-11, 02:26:04,VALID,1001.02,VALID,0,VALID,94.4074,VALID,0,VALID,24.2857,VALID,304,VALID,0,
2010-01-11, 02:27:04,VALID,1000.97,VALID,0,VALID,94.3921,VALID,0.100563,VALID,24.2662,VALID,304,VALID,0,
2010-01-11, 02:28:04,VALID,1000.95,VALID,0,VALID,94.354,VALID,0,VALID,24.2468,VALID,304,VALID,0,
2010-01-11, 02:29:04,VALID,1000.89,VALID,0,VALID,94.354,VALID,0,VALID,24.2681,VALID,355,VALID,0.679297,
2010-01-11, 02:30:04,VALID,1000.85,VALID,0,VALID,94.354,VALID,0.100563,VALID,24.2255,VALID,357,VALID,0.501562,
2010-01-11, 02:31:04,VALID,1000.83,VALID,0,VALID,94.3311,VALID,0,VALID,24.2273,VALID,342,VALID,0.169922,
2010-01-11, 02:32:04,VALID,1000.82,VALID,0,VALID,94.3158,VALID,0,VALID,24.2273,VALID,285,VALID,0.476563,
2010-01-11, 02:33:04,VALID,1000.77,VALID,0,VALID,94.3082,VALID,0,VALID,24.2273,VALID,285,VALID,0,
2010-01-11, 02:34:04,VALID,1000.74,VALID,0,VALID,94.3311,VALID,0,VALID,24.2486,VALID,285,VALID,0,
2010-01-11, 02:35:04,VALID,1000.72,VALID,0,VALID,94.3082,VALID,0,VALID,24.2486,VALID,293,VALID,0.302734,
2010-01-11, 02:36:04,VALID,1000.7,VALID,0,VALID,94.293,VALID,0,VALID,24.2468,VALID,293,VALID,0,
2010-01-11, 02:37:04,VALID,1000.68,VALID,0,VALID,94.3082,VALID,0.100563,VALID,24.2486,VALID,293,VALID,0.165625,
2010-01-11, 02:38:04,VALID,1000.66,VALID,0,VALID,94.293,VALID,0.100563,VALID,24.2273,VALID,357,VALID,0,
2010-01-11, 02:39:04,VALID,1000.66,VALID,0,VALID,94.293,VALID,0,VALID,24.2273,VALID,357,VALID,0,
2010-01-11, 02:40:04,VALID,1000.65,VALID,0,VALID,94.3006,VALID,0,VALID,24.2273,VALID,357,VALID,0,
2010-01-11, 02:41:04,VALID,1000.63,VALID,0,VALID,94.293,VALID,0,VALID,24.2291,VALID,23,VALID,0,
2010-01-11, 02:42:04,VALID,1000.65,VALID,0,VALID,94.293,VALID,0.100563,VALID,24.206,VALID,23,VALID,0,
2010-01-11, 02:43:04,VALID,1000.64,VALID,0,VALID,94.3082,VALID,0,VALID,24.2078,VALID,14,VALID,0,
2010-01-11, 02:44:04,VALID,1000.65,VALID,0,VALID,94.3082,VALID,0,VALID,24.2078,VALID,14,VALID,0,
2010-01-11, 02:45:04,VALID,1000.66,VALID,0,VALID,94.3082,VALID,0,VALID,24.2097,VALID,314,VALID,0.491797,
2010-01-11, 02:46:04,VALID,1000.63,VALID,0,VALID,94.3158,VALID,0.100563,VALID,24.1884,VALID,270,VALID,0.00429688,
2010-01-11, 02:47:04,VALID,1000.65,VALID,0,VALID,94.3158,VALID,0,VALID,24.1902,VALID,270,VALID,0.432422,
2010-01-11, 02:48:04,VALID,1000.64,VALID,0,VALID,94.3006,VALID,0,VALID,24.1689,VALID,271,VALID,0.448047,
2010-01-11, 02:49:04,VALID,1000.65,VALID,0,VALID,94.3158,VALID,0,VALID,24.1689,VALID,271,VALID,0,
2010-01-11, 02:50:04,VALID,1000.67,VALID,0,VALID,94.3006,VALID,0.100563,VALID,24.1884,VALID,271,VALID,0,
2010-01-11, 02:51:04,VALID,1000.7,VALID,0,VALID,94.3158,VALID,0.100563,VALID,24.1689,VALID,271,VALID,0.00429688,
2010-01-11, 02:52:04,VALID,1000.69,VALID,0,VALID,94.3006,VALID,0,VALID,24.1494,VALID,271,VALID,0,
2010-01-11, 02:53:04,VALID,1000.7,VALID,0,VALID,94.293,VALID,0,VALID,24.1494,VALID,277,VALID,0.0433594,
2010-01-11, 02:54:04,VALID,1000.7,VALID,0,VALID,94.3006,VALID,0,VALID,24.13,VALID,337,VALID,0.149609,
2010-01-11, 02:55:04,VALID,1000.72,VALID,0,VALID,94.3082,VALID,0,VALID,24.13,VALID,336,VALID,0.009375,
2010-01-11, 02:56:04,VALID,1000.69,VALID,0,VALID,94.3082,VALID,0,VALID,24.1513,VALID,302,VALID,0.215234,
2010-01-11, 02:57:04,VALID,1000.72,VALID,0,VALID,94.3311,VALID,0,VALID,24.1513,VALID,302,VALID,0,
2010-01-11, 02:58:04,VALID,1000.71,VALID,0,VALID,94.3082,VALID,0,VALID,24.1318,VALID,302,VALID,0,
2010-01-11, 02:59:04,VALID,1000.74,VALID,0,VALID,94.3082,VALID,0,VALID,24.1318,VALID,302,VALID,0.00117188,
2010-01-11, 03:00:04,VALID,1000.74,VALID,0,VALID,94.293,VALID,0,VALID,24.1087,VALID,314,VALID,0,
2010-01-11, 03:01:04,VALID,1000.74,VALID,0,VALID,94.3006,VALID,0,VALID,24.1123,VALID,319,VALID,0,
2010-01-11, 03:02:04,VALID,1000.75,VALID,0,VALID,94.3006,VALID,0.100563,VALID,24.1318,VALID,319,VALID,0,
2010-01-11, 03:03:04,VALID,1000.76,VALID,0,VALID,94.3158,VALID,0,VALID,24.1105,VALID,314,VALID,0.0789063,
2010-01-11, 03:04:04,VALID,1000.76,VALID,0,VALID,94.3158,VALID,0,VALID,24.1105,VALID,290,VALID,0.0570313,
2010-01-11, 03:05:04,VALID,1000.73,VALID,0,VALID,94.3311,VALID,0,VALID,24.1318,VALID,290,VALID,0,
2010-01-11, 03:06:04,VALID,1000.76,VALID,0,VALID,94.3235,VALID,0,VALID,24.1105,VALID,290,VALID,0,
2010-01-11, 03:07:04,VALID,1000.74,VALID,0,VALID,94.3235,VALID,0.100563,VALID,24.13,VALID,290,VALID,0.0703125,
2010-01-11, 03:08:04,VALID,1000.73,VALID,0,VALID,94.3387,VALID,0,VALID,24.13,VALID,290,VALID,0,
2010-01-11, 03:09:04,VALID,1000.74,VALID,0,VALID,94.3464,VALID,0,VALID,24.1105,VALID,287,VALID,0.482422,
2010-01-11, 03:10:04,VALID,1000.73,VALID,0,VALID,94.3464,VALID,0,VALID,24.13,VALID,292,VALID,0.482812,
2010-01-11, 03:11:04,VALID,1000.76,VALID,0,VALID,94.354,VALID,0,VALID,24.1513,VALID,292,VALID,0.0078125,
2010-01-11, 03:12:04,VALID,1000.79,VALID,0,VALID,94.3692,VALID,0,VALID,24.1494,VALID,292,VALID,0,
2010-01-11, 03:13:04,VALID,1000.77,VALID,0,VALID,94.3464,VALID,0.100563,VALID,24.1494,VALID,285,VALID,0.569922,
2010-01-11, 03:14:04,VALID,1000.78,VALID,0,VALID,94.354,VALID,0,VALID,24.1494,VALID,289,VALID,0.207422,
2010-01-11, 03:15:04,VALID,1000.78,VALID,0,VALID,94.3769,VALID,0,VALID,24.1707,VALID,296,VALID,0.0078125,
2010-01-11, 03:16:04,VALID,1000.75,VALID,0,VALID,94.3921,VALID,0,VALID,24.1902,VALID,296,VALID,0,
2010-01-11, 03:17:04,VALID,1000.77,VALID,0,VALID,94.3921,VALID,0.100563,VALID,24.1884,VALID,299,VALID,0.46875,
2010-01-11, 03:18:04,VALID,1000.76,VALID,0,VALID,94.3921,VALID,0.100563,VALID,24.2078,VALID,271,VALID,0.397266,
2010-01-11, 03:19:04,VALID,1000.75,VALID,0,VALID,94.3998,VALID,0,VALID,24.2291,VALID,271,VALID,0,
2010-01-11, 03:20:04,VALID,1000.76,VALID,0,VALID,94.4074,VALID,0.100563,VALID,24.2273,VALID,315,VALID,0.136328,
2010-01-11, 03:21:04,VALID,1000.77,VALID,0,VALID,94.3998,VALID,0,VALID,24.2273,VALID,280,VALID,0.0574219,
2010-01-11, 03:22:04,VALID,1000.74,VALID,0,VALID,94.415,VALID,0,VALID,24.2468,VALID,297,VALID,0,
2010-01-11, 03:23:04,VALID,1000.75,VALID,0,VALID,94.415,VALID,0,VALID,24.2681,VALID,296,VALID,0.152734,
2010-01-11, 03:24:04,VALID,1000.77,VALID,0,VALID,94.4227,VALID,0,VALID,24.2662,VALID,294,VALID,0.553516,
2010-01-11, 03:25:04,VALID,1000.77,VALID,0,VALID,94.4074,VALID,0,VALID,24.2681,VALID,302,VALID,0,
2010-01-11, 03:26:04,VALID,1000.8,VALID,0,VALID,94.415,VALID,0,VALID,24.2875,VALID,297,VALID,0.734766,
2010-01-11, 03:27:04,VALID,1000.79,VALID,0,VALID,94.4074,VALID,0,VALID,24.2662,VALID,288,VALID,0,
2010-01-11, 03:28:04,VALID,1000.81,VALID,0,VALID,94.4455,VALID,0.100563,VALID,24.2875,VALID,286,VALID,0.669922,
2010-01-11, 03:29:04,VALID,1000.79,VALID,0,VALID,94.4227,VALID,0,VALID,24.307,VALID,293,VALID,0.311719,
2010-01-11, 03:30:04,VALID,1000.8,VALID,0,VALID,94.415,VALID,0,VALID,24.3052,VALID,293,VALID,0.00585938,
2010-01-11, 03:31:04,VALID,1000.77,VALID,0,VALID,94.4227,VALID,0,VALID,24.3052,VALID,293,VALID,0,
2010-01-11, 03:32:04,VALID,1000.77,VALID,0,VALID,94.415,VALID,0,VALID,24.3441,VALID,281,VALID,0.55625,
2010-01-11, 03:33:04,VALID,1000.81,VALID,0,VALID,94.4227,VALID,0.100563,VALID,24.3441,VALID,289,VALID,0.465625,
2010-01-11, 03:34:04,VALID,1000.76,VALID,0,VALID,94.4227,VALID,0.100563,VALID,24.3441,VALID,289,VALID,0,
2010-01-11, 03:35:04,VALID,1000.76,VALID,0,VALID,94.415,VALID,0,VALID,24.3636,VALID,289,VALID,0.0765625,
2010-01-11, 03:36:04,VALID,1000.73,VALID,0,VALID,94.3921,VALID,0,VALID,24.3849,VALID,7,VALID,0.36875,
2010-01-11, 03:37:04,VALID,1000.75,VALID,0,VALID,94.4074,VALID,0,VALID,24.383,VALID,4,VALID,0.216016,
2010-01-11, 03:38:04,VALID,1000.77,VALID,0,VALID,94.3845,VALID,0.100563,VALID,24.383,VALID,356,VALID,0.120312,
2010-01-11, 03:39:04,VALID,1000.76,VALID,0,VALID,94.3845,VALID,0,VALID,24.4025,VALID,285,VALID,0.504297,
2010-01-11, 03:40:04,VALID,1000.78,VALID,0,VALID,94.4074,VALID,0,VALID,24.4025,VALID,331,VALID,0.267578,
2010-01-11, 03:41:04,VALID,1000.77,VALID,0,VALID,94.3998,VALID,0.100563,VALID,24.4025,VALID,314,VALID,0.234375,
2010-01-11, 03:42:04,VALID,1000.77,VALID,0,VALID,94.354,VALID,0.100563,VALID,24.422,VALID,314,VALID,0.00117188,
2010-01-11, 03:43:04,VALID,1000.79,VALID,0,VALID,94.3692,VALID,0,VALID,24.4414,VALID,314,VALID,0,